Regional Weather Roundup
Issued by NWS

Home | Current Version | Previous Version | Text Only | Print | Product List | Glossary On
Versions: 1 2 3 4 5 6 7 8 9 10 11 12 13 14 15 16 17 18 19 20 21 22 23 24 25 26 27 28 29 30 31 32 33 34 35 36 37 38 39 40 41 42 43 44 45 46 47 48 49 50
000
ASUS43 KLSX 010307
RWRMO

WEATHER SUMMARY FOR MISSOURI
NATIONAL WEATHER SERVICE SPRINGFIELD MO
1000 PM CDT SUN AUG 31 2014

NOTE: "FAIR" INDICATES FEW OR NO CLOUDS BELOW 12,000 FEET WITH NO
       SIGNIFICANT WEATHER AND/OR OBSTRUCTIONS TO VISIBILITY.
       CURRENT SKY AND/OR WEATHER CONDITIONS ARE NOT AVAILABLE FOR
       CHILLICOTHE AND FARMINGTON.

MOZ001>031-035>038-043-044-053-054-010400-
...NORTHERN AND WESTERN MISSOURI...

CITY           SKY/WX    TMP DP  RH WIND       PRES   REMARKS
KANSAS CTY INT CLOUDY    73  62  68 NW24G35   29.86R
KANSAS C DTWN  CLOUDY    87  66  49 SW10      29.79R
LEE`S SUMMIT   CLOUDY    85  65  51 S14G26    29.76R
ST JOSEPH      TSTM      66  65  96 S13       29.81F FOG
CHILLICOTHE      N/A     82  65  56 S7        29.76R
KIRKSVILLE     CLOUDY    77  65  66 SE13      29.80S

$$
MOZ066>068-077>081-088>096-101>105-010400-
...SOUTHWEST MISSOURI...

CITY           SKY/WX    TMP DP  RH WIND       PRES   REMARKS
SPRINGFIELD    CLEAR     80  68  66 S14G24    29.87F
JOPLIN         CLEAR     83  67  58 S17       29.82F

$$
MOZ032>034-039>042-045>050-055>058-069>072-010400-
...CENTRAL MISSOURI...

CITY           SKY/WX    TMP DP  RH WIND       PRES   REMARKS
COLUMBIA       CLEAR     79  66  64 S9        29.83R
JEFFERSON CITY CLEAR     79  68  69 SE7       29.82R
ROLLA          CLEAR     78  67  68 S13       29.87S
SEDALIA        MOCLDY    83  67  58 S15       29.78F
WHITEMAN AFB   MOCLDY    80  68  66 S12       29.77S
OSAGE BEACH    CLEAR     82  66  57 S9        29.84S

$$
MOZ051-052-059>065-010400-
...EAST CENTRAL MISSOURI...

CITY           SKY/WX    TMP DP  RH WIND       PRES   REMARKS
ST LOUIS INTL  CLEAR     80  70  71 S13       29.88S
SPIRIT OF STL  CLEAR     79  69  71 S6        29.86R
ST CHARLES     CLEAR     76  70  82 S6        29.86R

$$
MOZ072>076-082>087-097>100-106>115-010400-
...SOUTH CENTRAL AND SOUTHEAST MISSOURI...

CITY           SKY/WX    TMP DP  RH WIND       PRES   REMARKS
CAPE GIRARDEAU CLEAR     76  72  87 S7        29.94R
FARMINGTON     CLEAR     73  70  88 S9        29.94F
POPLAR BLUFF   CLEAR     76  71  85 S3        29.93R
WEST PLAINS    CLEAR     77  70  79 S10G21    29.96R

$$


USA.gov is the U.S. government's official web portal to all federal, state and local government web resources and services.